Location: Camps Bay
(33.9517°S, 18.3844°E)
Time: 21:51:05
(UTC+00:00)

Lacrosse 5 - Pass Details

Date: 18 January 2020
Orbit: 717 x 722 km, 57.0° (Epoch: 06 February)

Event Time Altitude Azimuth Distance (km) Brightness Sun altitude
Rises 01:38:48 0° 212° (SSW) 3,161 5.4 -23.1°
Reaches altitude 10° 01:41:24 10° 203° (SSW) 2,235 4.7 -22.8°
Maximum altitude 01:46:07 35° 137° (SE) 1,169 3.5 -22.1°
Drops below altitude 10° 01:50:47 10° 71° (ENE) 2,216 4.7 -21.4°
Sets 01:53:20 0° 62° (ENE) 3,130 5.4 -21.1°
